Current Application Queue

APP ID Queue # Qualify Date Process Status DER Type and Size Sub - Fdr - Phs
APP3943 1 11/25/2020 9:42:41 PM Fast Track Pending Initial Review Solar Photovoltaic 30.72 kW - -
APP3937 2 11/25/2020 5:35:17 AM Fast Track Pending Engineer Review Solar Photovoltaic 22.80 kW 11 - 01 - A
APP3904 3 11/13/2020 4:40:07 PM Fast Track Pending Contract (Customer) Solar Photovoltaic 37.50 kW 82 - 01 - A
APP3897 4 11/13/2020 12:48:56 PM Fast Track Pending Contract (Customer) Solar Photovoltaic 25.00 kW 82 - 01 - A
APP3913 5 11/13/2020 9:53:15 AM Fast Track DER Installation and Interconnection Solar Photovoltaic 37.50 kW 74 - 02 - B
APP3860 6 10/31/2020 4:54:01 PM Fast Track Project Complete Solar Photovoltaic 37.50 kW 20 - 04 - C
APP3796 7 10/20/2020 11:36:20 AM Fast Track Facilities Construction Solar Photovoltaic 37.50 kW 33 - 04 - B
APP3795 8 10/20/2020 10:59:17 AM Simplified Project Complete Solar Photovoltaic 10.00 kW 11 - 03 - B
APP3784 9 10/19/2020 7:27:58 PM Fast Track Project Complete Solar Photovoltaic 37.50 kW 72 - 03 - A
APP3747 10 10/14/2020 11:17:58 AM Fast Track DER Installation and Interconnection Solar Photovoltaic 37.50 kW 61 - 02 - A
APP3628 11 9/30/2020 8:05:10 AM Simplified Facilities Construction Solar Photovoltaic 6.00 kW 30 - 01 - C
APP3668 12 9/28/2020 7:37:17 PM Fast Track Project Complete Solar Photovoltaic 30.00 kW 22 - 22 - C
APP3553 13 9/22/2020 9:25:45 PM Fast Track Project Complete Solar Photovoltaic 19.20 kW 72 - 01 - C
APP3548 14 9/21/2020 9:46:18 AM Simplified DER Installation and Interconnection Solar Photovoltaic 14.61 kW 30 - 01 - C
APP3557 15 9/13/2020 4:07:08 PM Fast Track Project Complete Solar Photovoltaic 37.50 kW 62 - 03 - C
APP3538 16 9/11/2020 6:14:02 PM Fast Track Project Complete Solar Photovoltaic 37.50 kW 65 - 01 - C
APP3539 17 9/11/2020 11:29:58 AM Simplified Project Complete Solar Photovoltaic 11.21 kW 57 - 01 - AC
APP3497 18 9/9/2020 3:20:06 PM Fast Track Project Complete Solar Photovoltaic 37.50 kW 70 - 03 - B
APP3470 19 8/27/2020 3:17:07 PM Simplified Project Complete Solar Photovoltaic 7.80 kW 72 - 05 - C
APP3478 20 8/26/2020 6:58:04 PM Fast Track Project Complete Solar Photovoltaic 25.00 kW 11 - 02 - B
APP3480 21 8/26/2020 1:18:19 PM Simplified Project Complete Solar Photovoltaic 10.00 kW 33 - 02 - A
APP3472 22 8/24/2020 4:47:20 PM Simplified Project Complete Solar Photovoltaic 7.60 kW 62 - 02 - B
APP3458 23 8/19/2020 11:30:09 AM Fast Track Project Complete Solar Photovoltaic 37.50 kW 11 - 02 - B
APP3419 24 8/18/2020 5:43:32 PM Simplified Project Complete Solar Photovoltaic 12.50 kW 22 - 02 - C
APP3413 25 8/10/2020 9:57:20 AM Fast Track Project Complete Solar Photovoltaic 27.50 kW 62 - 03 - C
APP3425 26 8/9/2020 8:06:52 PM Fast Track Project Complete Solar Photovoltaic 37.50 kW 71 - 03 - A
APP3356 27 7/22/2020 9:52:03 AM Simplified Project Complete Solar Photovoltaic kW 57 - 01 - A
APP3357 28 7/22/2020 8:26:13 AM Simplified Project Complete Solar Photovoltaic 5.00 kW 22 - 02 - A
APP3337 29 7/15/2020 5:07:30 PM Simplified Project Complete Solar Photovoltaic 10.00 kW 10 - 02 - B
APP3328 30 7/14/2020 5:44:28 PM Simplified Project Complete Solar Photovoltaic 10.00 kW 10 - 03 - B
APP3323 31 7/14/2020 11:23:52 AM Fast Track Project Complete Solar Photovoltaic 30.40 kW 71 - 03 - A
APP3322 32 7/14/2020 8:21:01 AM Fast Track Project Complete Solar Photovoltaic 37.50 kW 12 - 03 - C
APP3320 33 7/13/2020 7:24:19 PM Fast Track Project Complete Solar Photovoltaic 37.50 kW 11 - 02 - B
APP3324 34 7/12/2020 2:57:02 PM Fast Track Project Complete Solar Photovoltaic 36.00 kW 74 - 01 - A
APP3052 35 7/10/2020 12:35:00 PM Simplified Inspection and Testing Solar Photovoltaic 18.75 kW 11 - 03 - C
APP3269 36 6/23/2020 5:41:13 PM Simplified Project Complete Solar Photovoltaic 7.20 kW 21 - 02 - A
APP3268 37 6/23/2020 4:55:50 PM Simplified Project Complete Solar Photovoltaic 8.20 kW 22 - 02 - A
APP3255 38 6/21/2020 4:17:23 PM Simplified Project Complete Solar Photovoltaic 5.00 kW 13 - 02 - A
APP3249 39 6/20/2020 11:03:46 AM Simplified Project Complete Solar Photovoltaic 7.60 kW 70 - 02 - B
APP3168 40 6/17/2020 8:00:34 PM Simplified Project Complete Solar Photovoltaic 9.00 kW 61 - 05 - A
APP3226 41 6/17/2020 7:42:15 PM Fast Track Project Complete Solar Photovoltaic 37.50 kW 62 - 03 - B
APP3248 42 6/17/2020 8:36:16 AM Fast Track Project Complete Solar Photovoltaic 24.00 kW 32 - 03 - ABC
APP3235 43 6/14/2020 8:43:33 AM Fast Track Project Complete Solar Photovoltaic 11.40 kW 22 - 02 - C
APP3227 44 6/11/2020 6:00:29 PM Fast Track Project Complete Solar Photovoltaic 37.50 kW 60 - 03 - C
APP3228 45 6/10/2020 9:48:03 PM Fast Track Project Complete Solar Photovoltaic 37.50 kW 66 - 01 - C
APP3189 46 6/10/2020 10:10:03 AM Simplified Project Complete Solar Photovoltaic 19.00 kW 20 - 01 - B
APP3206 47 6/8/2020 8:29:18 AM Fast Track Project Complete Solar Photovoltaic 37.50 kW 62 - 02 - C
APP3206 48 6/8/2020 8:29:18 AM Fast Track Project Complete Solar Photovoltaic 37.50 kW 62 - 02 - C
APP3152 49 5/20/2020 8:29:31 PM Fast Track Project Complete Solar Photovoltaic 37.50 kW 11 - 02 - B
APP3143 50 5/19/2020 7:52:43 AM Fast Track Project Complete Solar Photovoltaic 37.50 kW 12 - 04 - B
APP3135 51 5/15/2020 4:39:23 PM Simplified Project Complete Solar Photovoltaic 6.00 kW 12 - 01 - C
APP3121 52 5/11/2020 9:08:34 PM Fast Track Project Complete Solar Photovoltaic 37.50 kW 13 - 04 - B
APP2940 53 4/30/2020 4:25:15 PM Fast Track Project Complete Solar Photovoltaic 15.00 kW 30 - 03 - C
APP3068 54 4/28/2020 6:17:28 PM Simplified DER Installation and Interconnection Solar Photovoltaic 3.83 kW 74 - 04 - B
APP2988 55 3/29/2020 6:12:58 PM Fast Track Project Complete Solar Photovoltaic 25.00 kW 71 - 01 - B
APP2987 56 3/29/2020 2:44:26 PM Fast Track Project Complete Solar Photovoltaic 37.50 kW 12 - 05 - B
APP2959 57 3/20/2020 5:11:32 PM Simplified Project Complete Solar Photovoltaic 6.00 kW 51 - 01 - C
APP2902 58 3/18/2020 4:52:19 PM Simplified DER Installation and Interconnection Solar Photovoltaic 20.00 kW 61 - 01 - C
APP2923 59 3/17/2020 12:51:35 PM Fast Track DER Installation and Interconnection Solar Photovoltaic 2000.00 kW 72 - 05 - ABC
APP2924 60 3/9/2020 9:06:21 PM Fast Track Project Complete Solar Photovoltaic 37.50 kW 11 - 03 - C
APP2922 61 3/9/2020 10:50:40 AM Fast Track DER Installation and Interconnection Solar Photovoltaic 3000.00 kW 61 - 03 - ABC
APP2921 62 3/9/2020 8:20:59 AM Simplified Project Complete Solar Photovoltaic 5.00 kW 21 - 03 - B
APP2909 63 3/5/2020 8:30:01 AM Fast Track DER Installation and Interconnection Solar Photovoltaic 3000.00 kW 10 - 01 - ABC
APP2903 64 2/28/2020 11:21:08 PM Fast Track Project Complete Solar Photovoltaic 20.00 kW 62 - 03 - C
APP2900 65 2/28/2020 6:54:41 PM Simplified Project Complete Solar Photovoltaic 20.00 kW 31 - 04 - A
APP2845 66 2/11/2020 12:10:32 PM Fast Track Project Complete Solar Photovoltaic 37.50 kW 31 - 01 - A
APP2720 67 1/7/2020 2:36:10 PM Fast Track Project Complete Solar Photovoltaic 35.80 kW 12 - 02 - C
APP2562 68 12/17/2019 11:22:22 AM Simplified Project Complete Solar Photovoltaic 15.20 kW 32 - 03 - B
APP2594 69 11/20/2019 7:52:52 AM Simplified Project Complete Solar Photovoltaic 11.80 kW 82 - 02 - C
APP2520 70 11/15/2019 4:16:02 PM Fast Track Project Complete Solar Photovoltaic 37.50 kW 61 - 04 - B
APP2602 71 11/14/2019 9:21:04 AM Fast Track Project Complete Solar Photovoltaic 37.50 kW 20 - 03 - A
APP2519 72 11/13/2019 9:36:37 PM Fast Track Project Complete Solar Photovoltaic 37.50 kW 61 - 04 - A
APP2591 73 11/11/2019 6:47:17 PM Fast Track Project Complete Solar Photovoltaic 12.00 kW 30 - 01 - C
APP2590 74 11/11/2019 5:59:37 PM Fast Track Project Complete Solar Photovoltaic 22.80 kW 70 - 02 - C
APP2558 75 11/3/2019 6:17:22 PM Simplified Project Complete Solar Photovoltaic 10.00 kW 72 - 03 - C
APP2418 76 10/29/2019 8:42:48 AM Fast Track Project Complete Solar Photovoltaic 21.70 kW 72 - 05 - B
APP2418 77 10/29/2019 8:42:48 AM Fast Track Project Complete Solar Photovoltaic 21.70 kW 72 - 05 - B
APP2475 78 10/25/2019 12:48:09 PM Fast Track Project Complete Solar Photovoltaic 37.50 kW 10 - 01 - A
APP2315 79 10/25/2019 7:40:31 AM Fast Track Project Complete Solar Photovoltaic 30.00 kW 61 - 02 - C
APP2495 80 10/22/2019 3:36:27 PM Fast Track Project Complete Solar Photovoltaic 37.50 kW 70 - 04 - A
APP2419 81 10/15/2019 9:58:04 AM Simplified Project Complete Solar Photovoltaic 7.60 kW 71 - 03 - B
APP2474 82 10/14/2019 11:31:03 AM Fast Track Project Complete Solar Photovoltaic 37.50 kW 10 - 01 - A
APP2422 83 10/6/2019 7:57:30 PM Simplified Project Complete Solar Photovoltaic 7.60 kW 74 - 01 - C
APP2420 84 10/5/2019 9:53:45 AM Simplified Project Complete Solar Photovoltaic 9.00 kW 12 - 02 - C
APP2386 85 10/2/2019 7:04:04 AM Fast Track Project Complete Solar Photovoltaic 37.50 kW 74 - 02 - A
APP2282 86 9/24/2019 7:53:06 PM Fast Track Project Complete Solar Photovoltaic 37.50 kW 70 - 04 - C
APP2271 87 9/24/2019 5:35:22 PM Simplified Project Complete Solar Photovoltaic 11.80 kW 11 - 04 - C
APP2291 88 9/20/2019 4:25:31 PM Simplified Project Complete Solar Photovoltaic 11.40 kW 71 - 01 - C
APP2294 89 9/20/2019 3:36:44 PM Fast Track Project Complete Solar Photovoltaic 30.00 kW 10 - 03 - C
APP2255 90 9/19/2019 1:34:01 PM Simplified Project Complete Solar Photovoltaic 15.00 kW 61 - 02 - C
APP1670 91 9/18/2019 3:10:12 PM Simplified Project Complete Solar Photovoltaic 12.50 kW 70 - 01 - C
APP2265 92 9/18/2019 1:32:12 PM Fast Track Project Complete Solar Photovoltaic 37.50 kW 71 - 03 - C
APP2268 93 9/18/2019 12:27:16 PM Fast Track Project Complete Solar Photovoltaic 37.50 kW 71 - 03 - C
APP2267 94 9/18/2019 12:04:57 PM Fast Track Project Complete Solar Photovoltaic 37.50 kW 71 - 03 - C
APP2262 95 9/18/2019 8:30:01 AM Fast Track Project Complete Solar Photovoltaic 37.50 kW 12 - 03 - B
APP1996 96 9/17/2019 10:33:10 PM Fast Track Project Complete Solar Photovoltaic 37.50 kW 22 - 02 - A
APP2263 97 9/17/2019 9:23:14 PM Fast Track Project Complete Solar Photovoltaic 37.50 kW 71 - 03 - C
APP2211 98 9/17/2019 12:54:25 PM Fast Track DER Installation and Interconnection Solar Photovoltaic 1000.00 kW 11 - 04 - ABC
APP2097 99 9/5/2019 2:43:18 PM Fast Track Project Complete Solar Photovoltaic 37.50 kW 70 - 02 - A
APP1594 100 8/26/2019 12:00:00 AM Fast Track Project Complete Solar Photovoltaic 37.50 kW 70 - 04 - B
APP1887 101 8/23/2019 12:10:48 PM Simplified Project Complete Solar Photovoltaic 10.00 kW 11 - 03 - C
APP1795 102 8/21/2019 12:23:13 PM Simplified Project Complete Solar Photovoltaic 19.00 kW 51 - 04 - A
APP1671 103 8/16/2019 2:20:53 PM Fast Track Project Complete Solar Photovoltaic 11.70 kW 21 - 05 - A
APP1787 104 8/16/2019 1:27:45 PM Simplified Project Complete Solar Photovoltaic 7.60 kW 71 - 01 - C
APP1300 105 8/12/2019 3:23:02 PM Simplified Project Complete Solar Photovoltaic 6.00 kW 31 - 04 - A
APP1410 106 8/7/2019 1:24:10 PM Simplified Project Complete Solar Photovoltaic 6.38 kW 82 - 02 - B
APP1549 107 8/6/2019 9:45:56 AM Fast Track Project Complete Solar Photovoltaic 19.00 kW 72 - 04 - B
APP1548 108 8/6/2019 7:53:12 AM Fast Track Project Complete Solar Photovoltaic 37.50 kW 60 - 01 - A
APP1290 109 7/17/2019 8:45:35 AM Fast Track Project Complete Solar Photovoltaic 25.00 kW 62 - 01 - C
APP1282 110 7/16/2019 9:48:59 PM Fast Track Project Complete Solar Photovoltaic 37.50 kW 62 - 01 - C
APP1201 111 7/16/2019 7:59:38 AM Fast Track Project Complete Solar Photovoltaic 37.50 kW 61 - 04 - B
APP1019 112 7/10/2019 1:15:02 PM Fast Track Project Complete Solar Photovoltaic 37.50 kW 61 - 04 - B
APP1033 113 7/1/2019 10:21:04 AM Simplified Project Complete Solar Photovoltaic 15.00 kW 31 - 01 - C
APP1283 0 7/17/2019 9:04:05 AM Fast Track Withdrawn Solar Photovoltaic 37.50 kW - -
APP1389 0 8/6/2019 2:39:59 PM Fast Track Withdrawn Solar Photovoltaic 34.20 kW 20 - 03 - A
APP2264 0 9/17/2019 9:30:38 PM Fast Track Withdrawn Solar Photovoltaic 37.50 kW 71 - 03 - C
APP2266 0 9/18/2019 1:33:37 PM Fast Track Withdrawn Solar Photovoltaic 37.50 kW 71 - 03 - C
APP2269 0 9/18/2019 6:41:57 AM Fast Track Withdrawn Solar Photovoltaic 2000.00 kW 10 - 02 - ABC
APP2751 0 1/10/2020 11:08:28 AM Simplified Withdrawn Solar Photovoltaic 10.00 kW 11 - 03 - B
APP3186 0 6/1/2020 9:01:42 PM Fast Track Withdrawn Solar Photovoltaic 37.50 kW 62 - 02 - C
APP3186 0 6/1/2020 9:01:42 PM Fast Track Withdrawn Solar Photovoltaic 37.50 kW 62 - 02 - C
APP3578 0 9/17/2020 11:02:38 AM Simplified Withdrawn Solar Photovoltaic 7.60 kW 62 - 01 - B
APP3660 0 10/14/2020 5:37:29 PM Fast Track Withdrawn Solar Photovoltaic 30.20 kW - -
APP3915 0 11/13/2020 10:15:21 AM Fast Track Pending Signature Solar Photovoltaic 37.50 kW - -
APP3919 0 11/13/2020 6:09:08 PM Fast Track Pending Signature Solar Photovoltaic 29.60 kW - -
APP3919 0 11/13/2020 6:09:08 PM Fast Track Pending Signature Solar Photovoltaic 29.60 kW - -

 

 

  © 2020 - Application developed and maintained by STAR Energy Services LLC